Regional Weather Roundup
Issued by NWS

Home | Current Version | Previous Version | Graphics & Text | Print | Product List | Glossary Off
Versions: 1 2 3 4 5 6 7 8 9 10 11 12 13 14 15 16 17 18 19 20 21 22 23 24 25 26 27 28 29 30 31 32 33 34 35 36 37 38 39 40 41 42 43 44 45 46 47 48 49 50

000
ASUS43 KMKX 282200
RWRWI

WISCONSIN REGIONAL WEATHER ROUNDUP
NATIONAL WEATHER SERVICE MILWAUKEE/SULLIVAN WI
400 PM CST SUN DEC 28 2014

NOTE: "FAIR" INDICATES FEW OR NO CLOUDS BELOW 12,000 FEET WITH NO
SIGNIFICANT WEATHER AND/OR OBSTRUCTIONS TO VISIBILITY.

WIZ001-002-006>008-014>016-023>028-282300-
NORTHWEST WISCONSIN

CITY           SKY/WX    TMP DP  RH WIND       PRES   REMARKS
SUPERIOR ARPT  CLEAR     14  -1  50 NW6       30.26R WCI   5
ASHLAND        CLEAR     13   0  56 NW5       30.23R WCI   5
HAYWARD        CLEAR     15  -1  49 N5        30.19R WCI   8
SIREN          CLEAR     18  -1  44 N3        30.22R
CUMBERLAND     CLEAR     18   5  57 NW8       30.17R WCI   7
RICE LAKE      CLEAR     20   7  59 CALM      30.20R
CHETEK         PTCLDY    17  10  73 CALM      30.18R
LADYSMITH      PTCLDY    18   9  67 N7        30.18R WCI   9
EAU CLAIRE     NOT AVBL
MENOMONIE      CLEAR     19  13  79 CALM      30.20R
NEW RICHMOND   CLEAR     20  11  68 NW6       30.20R WCI  13
OSCEOLA        CLEAR     21   9  59 NW7       30.24R WCI  12
$$

WIZ003>005-009-010-017-018-282300-
NORTH CENTRAL WISCONSIN

CITY           SKY/WX    TMP DP  RH WIND       PRES   REMARKS
MANITOWISH WTR MOCLDY    11   4  74 NW6       30.11R WCI   2
ARBOR VITAE    PTCLDY    17   9  71 NW5       30.11R WCI  10
WOODRUFF       PTCLDY    17   9  71 NW5       30.11R WCI  10
RHINELANDER    CLOUDY    15   8  73 NW5       30.11R WCI   8
EAGLE RIVER    PTCLDY    13   4  68 NW8       30.10R WCI   2
LAND O LAKES   FLURRIES  14   7  74 NW7       30.11R WCI   4
PHILLIPS       MOCLDY    15   8  73 NW3       30.13R
TOMAHAWK       FLURRIES  18  13  82 CALM      30.12R
MEDFORD        LGT SNOW  16  12  83 W3        30.13R
MERRILL        FLURRIES  20  13  76 NW7       30.12R WCI  11
$$

WIZ029-030-035-036-043>047-282300-
CENTRAL WISCONSIN

CITY           SKY/WX    TMP DP  RH WIND       PRES   REMARKS
WAUSAU         CLOUDY    18  13  80 W7        30.13R HAZE    WCI   9
MOSINEE        LGT SNOW  19  18  93 W5        30.15  WCI  13
MARSHFIELD     CLOUDY    19  14  81 NW5       30.15R WCI  12
STEVENS POINT  LGT SNOW  19  15  84 W5        30.16R WCI  13
WAUPACA        CLOUDY    28  19  69 NW8       30.16R WCI  20
WAUTOMA        NOT AVBL
WISC RAPIDS    CLOUDY    23  16  74 N5        30.17R WCI  17
CAMP DOUGLAS   MOCLDY    27  23  86 W6        30.15R WCI  20
$$

WIZ011>013-019>022-031-037>040-048>050-282300-
NORTHEAST WISCONSIN

CITY           SKY/WX    TMP DP  RH WIND       PRES   REMARKS
ANTIGO         FLURRIES  18  14  82 W6        30.10R WCI  10
SHAWANO        CLOUDY    25  17  71 W6        30.16R WCI  18
OCONTO         CLEAR     24  15  67 W9        30.15R WCI  14
STURGEON BAY   MOCLDY    25  10  54 NW12      30.16R WCI  14
GREEN BAY      CLOUDY    27  19  72 NW9       30.16R WCI  18
MANITOWOC      NOT AVBL
APPLETON       MOCLDY    27  18  69 NW6       30.15R WCI  20
CLINTONVILLE   CLOUDY    25  18  74 NW8       30.15R WCI  16
OSHKOSH        CLOUDY    29  18  63 NW7       30.15R WCI  22
$$

WIZ032>034-041-042-053>061-282300-
SOUTHWEST WISCONSIN

CITY           SKY/WX    TMP DP  RH WIND       PRES   REMARKS
LA CROSSE      CLOUDY    26  18  71 N10       30.20R WCI  16
SPARTA         MOCLDY    28  19  71 NW6       30.18R WCI  21
VIROQUA        CLEAR     28  20  72 W3        30.14R
BOSCOBEL       CLEAR     32  19  58 SW3       30.17R
PRAIRIE DU CHI CLEAR     31  19  58 SW3       30.17S
PLATTEVILLE    CLEAR     31  14  50 CALM      30.16S
$$

WIZ056-057-062-063-064-067-068-282300-
SOUTH CENTRAL WISCONSIN

CITY           SKY/WX    TMP DP  RH WIND       PRES   REMARKS
REEDSBURG      CLOUDY    29  20  67 W5        30.15R WCI  24
BARABOO/DELLS  MOCLDY    29  19  66 W3        30.14R
LONE ROCK      NOT AVBL
MINERAL POINT  CLEAR     32  19  59 W6        30.14R WCI  26
MADISON        PTCLDY    31  18  58 CALM      30.15R
MIDDLETON      CLEAR     32  20  59 NW3       30.15R
WATERTOWN      CLEAR     30  20  65 W7        30.15R WCI  23
MONROE         CLEAR     32  19  59 W7        30.14R WCI  26
JANESVILLE     CLEAR     34  18  51 W6        30.15R WCI  29
$$

WIZ051-052-058>065-066-070>072-282300-
SOUTHEAST WISCONSIN

CITY           SKY/WX    TMP DP  RH WIND       PRES   REMARKS
MILWAUKEE      PTCLDY    32  16  51 NW7       30.16R WCI  26
WAUKESHA       CLEAR     28  18  64 NW13      30.16R WCI  18
MILWAUKEE/TIMM NOT AVBL
RACINE         CLEAR     32  18  56 W7        30.17R WCI  26
BURLINGTON     CLEAR     31  19  61 W7        30.15S WCI  24
KENOSHA        CLEAR     32  20  61 W9        30.16R WCI  24
FOND DU LAC    CLEAR     29  18  63 W7        30.15R WCI  22
SHEBOYGAN      CLEAR     28  18  66 W6        30.15R WCI  22
WEST BEND      CLEAR     30  19  64 NW9       30.15R WCI  22
JUNEAU         CLEAR     29  19  67 W5        30.16R WCI  23
$$

LSZ147-162-282300-
LAKE SUPERIOR

STATION/POSITION TIME  TEMP    WIND        PRES    WAVE
                       AIR SEA DIR/SP/G            HT/PER
                 (UTC) (F)     (DEG/KT/KT) (MB)    (FT/S)
DEVILS ISLAND    2100   14     300/ 13/ 18 1024.5R
PORT WING        2100   15     290/  7/ 11 1023.7
SAXON HARBOR     2100   18     280/  7/ 11 1022.7R
$$

LMZ867-665-643>646-282300-
LAKE MICHIGAN

STATION/POSITION TIME  TEMP    WIND        PRES    WAVE
                       AIR SEA DIR/SP/G            HT/PER
                 (UTC) (F)     (DEG/KT/KT) (MB)    (FT/S)
CHAMBERS ISLAND  2100   25     300/  8/ 14 1020.3R
NORTHPORT PIER   2106   25     290/  9/ 18 1020.0R
SISTER BAY       2128          340/ 15/ 17   N/A
ALGOMA LAKESHORE 2100          310/ 11/ 14   N/A
KEWAUNEE LAKESHO 2100   27     300/  6/ 12 1019.5R
SHEBOYGAN LAKESH 2100   29 37  300/  9/ 11 1021.8R
PORT WASHINGTON  2100   32     260/  7/ 10 1021.7R
MILWAUKEE LAKESH 2100   32     300/  8/ 11   N/A
KENOSHA   LAKESH 2100   34     290/  9/ 15 1020.7S
$$

TC  - TEMPERATURE IN CELSIUS
VSB - VISIBILITY IN STATUTE MILES
WCI - WIND CHILL INDEX
HX  - HEAT INDEX



USA.gov is the U.S. government's official web portal to all federal, state and local government web resources and services.